{"data":{"norad_id":69034,"epoch":"2026-09-20T00:33:29.664000Z","epoch_age_seconds":60487,"freshness":"FRESH","line1":"1 69034U 26101K   26263.02326000  .00010619  00000+0  33077-3 0  9993","line2":"2 69034  97.2843 116.4826 0001857  86.9884 273.1571 15.33444540 21102","mean_motion":15.3344454,"eccentricity":0.0001857,"inclination_deg":97.2843,"raan_deg":116.4826,"arg_perigee_deg":86.9884,"mean_anomaly_deg":273.1571,"bstar":0.00033077,"rev_number":2110,"period_min":93.906232826653,"perigee_km":464.27367145228,"apogee_km":466.81541477739,"semimajor_km":6843.6815431148,"source":"CELESTRAK","updated_at":"2026-09-20T09:00:44.059745Z"}}